Location: Bu�n Treun
(12.1333°N, 108.3167°E)
Time: 22:21:06
(UTC+00:00)

ADEOS Rocket - Pass Details

Date: 13 July 2020
Orbit: 859 x 1306 km, 98.7° (Epoch: 14 August)

Event Time Altitude Azimuth Distance (km) Brightness Sun altitude
Rises 21:46:18 0° 161° (SSE) 3,523 5.9 -10.5°
Reaches altitude 10° 21:48:38 10° 158° (SSE) 2,623 5.2 -10.0°
Maximum altitude 21:54:27 69° 76° (ENE) 1,055 3.5 -8.7°
Drops below altitude 10° 22:00:54 10° 354° (N) 2,902 5.7 -7.2°
Sets 22:03:34 0° 352° (N) 3,924 6.4 -6.6°
